timestamp,surface_pressure_avg,surface_temp_avg,battery_voltage,lat,long
2020-02-25 00:09:01+00:00,327.918,-0.3,12.81,47.84626,-54.09684
2020-02-25 00:19:01+00:00,329.1995,-0.31,12.65,47.84626,-54.09684
2020-02-25 00:29:01+00:00,332.1763,-0.31,12.65,47.84626,-54.09684
2020-02-25 00:39:01+00:00,332.14300000000014,-0.3,12.65,47.84626,-54.09684
2020-02-25 00:49:01+00:00,329.5313,-0.3,12.65,47.84626,-54.09684
2020-02-25 00:59:01+00:00,327.7228,-0.32,12.65,47.84626,-54.09684
2020-02-25 01:09:01+00:00,326.7463,-0.32,12.65,47.84626,-54.09684
2020-02-25 01:19:01+00:00,323.993,-0.31,12.57,47.84626,-54.09684
2020-02-25 01:29:01+00:00,322.0613,-0.3,12.57,47.84626,-54.09684
2020-02-25 01:39:01+00:00,320.3314,-0.3,12.57,47.84626,-54.09684
2020-02-25 01:49:01+00:00,317.9013,-0.31,12.57,47.84626,-54.09684
2020-02-25 01:59:01+00:00,313.798,-0.3,12.57,47.84626,-54.09684
2020-02-25 02:09:01+00:00,311.8113,-0.33,12.57,47.84626,-54.09684
2020-02-25 02:19:01+00:00,312.9747,-0.36,12.57,47.84626,-54.09684
2020-02-25 02:29:01+00:00,312.4063,-0.34,12.57,47.84626,-54.09684
2020-02-25 02:39:01+00:00,303.8264,-0.34,12.57,47.84626,-54.09684
2020-02-25 02:49:01+00:00,293.1197,-0.4,12.57,47.84626,-54.09684
2020-02-25 02:59:01+00:00,288.4414,-0.4,12.57,47.84626,-54.09684
2020-02-25 03:09:01+00:00,289.998,-0.4,12.57,47.84626,-54.09684
2020-02-25 03:19:01+00:00,282.4481,-0.4,12.57,47.84626,-54.09684
2020-02-25 03:29:01+00:00,268.6064,-0.4,12.57,47.84626,-54.09684
2020-02-25 03:39:01+00:00,262.6047,-0.4,12.57,47.84626,-54.09684
2020-02-25 03:49:01+00:00,257.1748,-0.4,12.57,47.84626,-54.09684
2020-02-25 03:59:01+00:00,244.2697,-0.4,12.57,47.84626,-54.09684
2020-02-25 04:09:01+00:00,234.6114,-0.4,12.57,47.84626,-54.09684
2020-02-25 04:19:01+00:00,234.1464,-0.5,12.57,47.84626,-54.09684
2020-02-25 04:29:01+00:00,227.8864,-0.53,12.57,47.84626,-54.09684
2020-02-25 04:39:01+00:00,215.9431,-0.6,12.57,47.84626,-54.09684
2020-02-25 04:49:01+00:00,208.0615,-0.6,12.57,47.84626,-54.09684
2020-02-25 04:59:01+00:00,199.3582,-0.6,12.57,47.84626,-54.09684
2020-02-25 05:09:01+00:00,188.2231,-0.6,12.57,47.84626,-54.09684
2020-02-25 05:19:01+00:00,185.0598,-0.6,12.57,47.84626,-54.09684
2020-02-25 05:29:01+00:00,184.7215,-0.6,12.57,47.84626,-54.09684
2020-02-25 05:39:01+00:00,175.0298,-0.6,12.57,47.84626,-54.09684
2020-02-25 05:49:01+00:00,164.6132,-0.6,12.57,47.84626,-54.09684
2020-02-25 05:59:01+00:00,171.2448,-0.6,12.57,47.84626,-54.09684
2020-02-25 06:09:01+00:00,171.1465,-0.5,12.57,47.84626,-54.09684
2020-02-25 06:19:01+00:00,154.6582,-0.6,12.49,47.84626,-54.09684
2020-02-25 06:29:01+00:00,158.0798,-0.6,12.49,47.84626,-54.09684
2020-02-25 06:39:01+00:00,170.7798,-0.56,12.49,47.84626,-54.09684
2020-02-25 06:49:01+00:00,166.4898,-0.5,12.49,47.84626,-54.09684
2020-02-25 06:59:01+00:00,159.1515,-0.52,12.49,47.84626,-54.09684
2020-02-25 07:09:01+00:00,171.8948,-0.5,12.49,47.84626,-54.09684
2020-02-25 07:19:01+00:00,181.2648,-0.4,12.49,47.84626,-54.09684
2020-02-25 07:29:01+00:00,171.6265,-0.4,12.49,47.84626,-54.09684
2020-02-25 07:39:01+00:00,174.2831,-0.4,12.49,47.84626,-54.09684
2020-02-25 07:49:01+00:00,187.5764,-0.4,12.49,47.84626,-54.09684
2020-02-25 07:59:01+00:00,187.0131,-0.4,12.49,47.84626,-54.09684
2020-02-25 08:09:01+00:00,189.2648,-0.4,12.49,47.84626,-54.09684
2020-02-25 08:19:01+00:00,202.1098,-0.4,12.49,47.84626,-54.09684
2020-02-25 08:29:01+00:00,209.0898,-0.39,12.49,47.84626,-54.09684
2020-02-25 08:39:01+00:00,210.6231,-0.37,12.49,47.84626,-54.09684
2020-02-25 08:49:01+00:00,213.6115,-0.35,12.49,47.84626,-54.09684
2020-02-25 08:59:01+00:00,220.5547,-0.38,12.49,47.84626,-54.09684
2020-02-25 09:09:01+00:00,225.6564,-0.36,12.49,47.84626,-54.09684
2020-02-25 09:19:01+00:00,228.5931,-0.38,12.41,47.84626,-54.09684
2020-02-25 09:29:01+00:00,233.8381,-0.36,12.41,47.84626,-54.09684
2020-02-25 09:39:01+00:00,237.6781,-0.32,12.41,47.84626,-54.09684
2020-02-25 09:49:01+00:00,240.8614,-0.35,12.41,47.84626,-54.09684
2020-02-25 09:59:01+00:00,247.1264,-0.33,12.41,47.84626,-54.09684
2020-02-25 10:09:01+00:00,253.3048,-0.31,12.41,47.84626,-54.09684
2020-02-25 10:19:01+00:00,260.2114,-0.31,12.49,47.84626,-54.09684
2020-02-25 10:29:01+00:00,267.2714,-0.31,12.49,47.84626,-54.09684
2020-02-25 10:39:01+00:00,278.0081,-0.32,12.49,47.84626,-54.09684
2020-02-25 10:49:01+00:00,287.2114,-0.32,12.49,47.84626,-54.09684
2020-02-25 10:59:01+00:00,293.8347,-0.32,12.49,47.84626,-54.09684
2020-02-25 11:09:01+00:00,300.9013,-0.32,12.49,47.84626,-54.09684
2020-02-25 11:19:01+00:00,310.608,-0.31,12.49,47.84626,-54.09684
2020-02-25 11:29:01+00:00,315.318,-0.3,12.49,47.84626,-54.09684
2020-02-25 11:39:01+00:00,322.6379,-0.3,12.49,47.84626,-54.09684
2020-02-25 11:49:01+00:00,329.2996,-0.3,12.49,47.84626,-54.09684
2020-02-25 11:59:01+00:00,337.5914,-0.3,12.49,47.84626,-54.09684
2020-02-25 12:09:01+00:00,337.0664,-0.3,12.49,47.84626,-54.09684
2020-02-25 12:19:01+00:00,338.4847,-0.3,12.57,47.84626,-54.09684
2020-02-25 12:29:01+00:00,346.0345,-0.3,12.57,47.84626,-54.09684
2020-02-25 12:39:01+00:00,349.6829,-0.3,12.57,47.84626,-54.09684
2020-02-25 12:49:01+00:00,351.0146,-0.3,12.57,47.84626,-54.09684
2020-02-25 12:59:01+00:00,351.6562,-0.3,12.57,47.84626,-54.09684
2020-02-25 13:09:01+00:00,359.37800000000016,-0.3,12.57,47.84626,-54.09684
2020-02-25 13:19:01+00:00,359.7413,-0.3,12.89,47.84626,-54.09684
2020-02-25 13:29:01+00:00,352.0079,-0.3,12.89,47.84626,-54.09684
2020-02-25 13:39:01+00:00,351.293,-0.3,12.89,47.84626,-54.09684
2020-02-25 13:49:01+00:00,350.9096,-0.3,12.89,47.84626,-54.09684
2020-02-25 13:59:01+00:00,345.8279,-0.3,12.89,47.84626,-54.09684
2020-02-25 14:09:01+00:00,339.5596,-0.3,12.89,47.84626,-54.09684
2020-02-25 14:19:01+00:00,336.9413,-0.3,13.29,47.84626,-54.09684
2020-02-25 14:29:01+00:00,334.2579,-0.3,13.29,47.84626,-54.09684
2020-02-25 14:39:01+00:00,329.3929,-0.3,13.29,47.84626,-54.09684
2020-02-25 14:49:01+00:00,325.8147,-0.3,13.29,47.84626,-54.09684
2020-02-25 14:59:01+00:00,323.2964,-0.3,13.29,47.84626,-54.09684
2020-02-25 15:09:01+00:00,318.0397,-0.3,13.29,47.84626,-54.09684
2020-02-25 15:19:01+00:00,311.3247,-0.3,13.6,47.84626,-54.09684
2020-02-25 15:29:01+00:00,302.1514,-0.3,13.6,47.84626,-54.09684
2020-02-25 15:39:01+00:00,296.2681,-0.3,13.6,47.84626,-54.09684
2020-02-25 15:49:01+00:00,289.4913,-0.3,13.6,47.84626,-54.09684
2020-02-25 15:59:01+00:00,280.3014,-0.3,13.6,47.84626,-54.09684
2020-02-25 16:09:01+00:00,273.718,-0.3,13.6,47.84626,-54.09684
2020-02-25 16:19:01+00:00,269.7931,-0.3,14.08,47.84626,-54.09684
2020-02-25 16:29:01+00:00,262.3998,-0.3,14.08,47.84626,-54.09684
2020-02-25 16:39:01+00:00,252.3148,-0.3,14.08,47.84626,-54.09684
2020-02-25 16:49:01+00:00,242.8582,-0.3,14.08,47.84626,-54.09684
2020-02-25 16:59:01+00:00,236.2414,-0.3,14.08,47.84626,-54.09684
2020-02-25 17:09:01+00:00,229.548,-0.3,14.08,47.84626,-54.09684
2020-02-25 17:19:01+00:00,221.2914,-0.29,14.32,47.84626,-54.09684
2020-02-25 17:29:01+00:00,213.5531,-0.24,14.32,47.84626,-54.09684
2020-02-25 17:39:01+00:00,205.5598,-0.22,14.32,47.84626,-54.09684
2020-02-25 17:49:01+00:00,200.9498,-0.2,14.32,47.84626,-54.09684
2020-02-25 17:59:01+00:00,199.4598,-0.2,14.32,47.84626,-54.09684
2020-02-25 18:09:01+00:00,192.5798,-0.2,14.32,47.84626,-54.09684
2020-02-25 18:19:01+00:00,186.9264,-0.2,14.48,47.84626,-54.09684
2020-02-25 18:29:01+00:00,188.9831,-0.2,14.48,47.84626,-54.09684
2020-02-25 18:39:01+00:00,190.0331,-0.2,14.48,47.84626,-54.09684
2020-02-25 18:49:01+00:00,185.9498,-0.2,14.48,47.84626,-54.09684
2020-02-25 18:59:01+00:00,182.6581,-0.2,14.48,47.84626,-54.09684
2020-02-25 19:09:01+00:00,181.7998,-0.2,14.48,47.84626,-54.09684
2020-02-25 19:19:01+00:00,178.7581,-0.2,14.16,47.84626,-54.09684
2020-02-25 19:29:01+00:00,179.1648,-0.2,14.16,47.84626,-54.09684
2020-02-25 19:39:01+00:00,185.9098,-0.2,14.16,47.84626,-54.09684
2020-02-25 19:49:01+00:00,189.7765,-0.2,14.16,47.84626,-54.09684
2020-02-25 19:59:01+00:00,192.4031,-0.2,14.16,47.84626,-54.09684
2020-02-25 20:09:01+00:00,201.1498,-0.18,14.16,47.84626,-54.09684
2020-02-25 20:19:01+00:00,206.9798,-0.15,13.76,47.84626,-54.09684
2020-02-25 20:29:01+00:00,208.6881,-0.12,13.76,47.84626,-54.09684
2020-02-25 20:39:01+00:00,215.4015,-0.18,13.76,47.84626,-54.09684
2020-02-25 20:49:01+00:00,221.4248,-0.2,13.76,47.84626,-54.09684
2020-02-25 20:59:01+00:00,224.2031,-0.2,13.76,47.84626,-54.09684
2020-02-25 21:09:01+00:00,230.7165,-0.2,13.76,47.84626,-54.09684
2020-02-25 21:19:01+00:00,236.9131,-0.2,13.37,47.84626,-54.09684
2020-02-25 21:29:01+00:00,241.7831,-0.2,13.37,47.84626,-54.09684
2020-02-25 21:39:01+00:00,246.9564,-0.2,13.37,47.84626,-54.09684
2020-02-25 21:49:01+00:00,253.0447,-0.2,13.37,47.84626,-54.09684
2020-02-25 21:59:01+00:00,260.7564,-0.2,13.37,47.84626,-54.09684
2020-02-25 22:09:01+00:00,270.1464,-0.2,13.37,47.84626,-54.09684
2020-02-25 22:19:01+00:00,273.3014,-0.2,12.97,47.84626,-54.09684
2020-02-25 22:29:01+00:00,274.5798,-0.2,12.97,47.84626,-54.09684
2020-02-25 22:39:01+00:00,281.4414,-0.2,12.97,47.84626,-54.09684
2020-02-25 22:49:01+00:00,286.2097,-0.2,12.97,47.84626,-54.09684
2020-02-25 22:59:01+00:00,285.053,-0.21,12.97,47.84626,-54.09684
2020-02-25 23:09:01+00:00,290.8263,-0.21,12.97,47.84626,-54.09684
2020-02-25 23:19:01+00:00,302.3713,-0.2,12.65,47.84626,-54.09684
2020-02-25 23:29:01+00:00,307.9631,-0.2,12.65,47.84626,-54.09684
2020-02-25 23:39:01+00:00,312.5681,-0.2,12.65,47.84626,-54.09684
2020-02-25 23:49:01+00:00,323.9396,-0.3,12.65,47.84626,-54.09684
2020-02-25 23:59:01+00:00,332.0229,-0.3,12.65,47.84626,-54.09684
